WZZ2471 LHBP-LDZD

Flight info

Callsign WZZ2471
Flight time 0h 47m
Altitude 20000
Route DUZLA DCT KOPRY M986 KULEN DCT KUDUL
Aircraft A321/M-SDE3FGHIRWY/LB1

Departure

Time 2026-04-22 21:14
Airport Budapest Liszt Ferenc International Airport (LHBP)

Arrival

Time 2026-04-22 22:01
Airport Zadar Airport (LDZD)
Time Latitude Longitude Altitude Speed Heading
2026-04-22 20:53 47.43513 19.25976 458 ft 0 kts 312°
2026-04-22 21:07 47.43512 19.25976 457 ft 0 kts 312°
2026-04-22 21:11 47.43513 19.25975 457 ft 1 kts 312°
2026-04-22 21:11 47.43536 19.25936 457 ft 10 kts 306°
2026-04-22 21:11 47.43500 19.25833 457 ft 13 kts 241°
2026-04-22 21:11 47.43543 19.25714 457 ft 15 kts 301°
2026-04-22 21:12 47.43493 19.25589 457 ft 17 kts 224°
2026-04-22 21:12 47.43404 19.25468 457 ft 18 kts 222°
2026-04-22 21:12 47.43310 19.25341 456 ft 19 kts 222°
2026-04-22 21:12 47.43211 19.25209 457 ft 20 kts 222°
2026-04-22 21:13 47.43109 19.25073 456 ft 20 kts 222°
2026-04-22 21:13 47.43081 19.24964 457 ft 7 kts 316°
2026-04-22 21:13 47.43124 19.24902 457 ft 16 kts 312°
2026-04-22 21:13 47.43365 19.24512 452 ft 88 kts 312°
2026-04-22 21:14 47.43924 19.23612 458 ft 146 kts 313°
2026-04-22 21:14 47.44644 19.22460 1004 ft 151 kts 314°
2026-04-22 21:14 47.45347 19.21330 1791 ft 147 kts 317°
2026-04-22 21:14 47.46075 19.20161 2268 ft 165 kts 316°
2026-04-22 21:15 47.46899 19.18833 2618 ft 187 kts 315°
2026-04-22 21:15 47.47832 19.17327 2958 ft 211 kts 315°
2026-04-22 21:15 47.48658 19.15429 3184 ft 238 kts 291°
2026-04-22 21:15 47.48875 19.12888 3555 ft 262 kts 264°
2026-04-22 21:16 47.48255 19.10325 4241 ft 271 kts 237°
2026-04-22 21:16 47.46880 19.08413 4977 ft 278 kts 210°
2026-04-22 21:16 47.45141 19.07134 5787 ft 280 kts 206°
2026-04-22 21:16 47.43379 19.05868 6587 ft 283 kts 206°
2026-04-22 21:17 47.41614 19.04598 7395 ft 284 kts 207°
2026-04-22 21:17 47.39825 19.03310 8149 ft 288 kts 207°
2026-04-22 21:17 47.38016 19.02006 8883 ft 292 kts 207°
2026-04-22 21:17 47.36181 19.00682 9651 ft 295 kts 207°
2026-04-22 21:18 47.34349 18.99364 10356 ft 299 kts 207°
2026-04-22 21:18 47.32470 18.97998 10903 ft 309 kts 207°
2026-04-22 21:18 47.30456 18.96589 11082 ft 332 kts 205°
2026-04-22 21:18 47.28285 18.95112 11218 ft 354 kts 205°
2026-04-22 21:19 47.26005 18.93576 11663 ft 365 kts 205°
2026-04-22 21:19 47.23677 18.92009 12279 ft 370 kts 205°
2026-04-22 21:19 47.21325 18.90415 12915 ft 375 kts 205°
2026-04-22 21:19 47.18943 18.88793 13546 ft 380 kts 205°
2026-04-22 21:20 47.16564 18.87172 14142 ft 384 kts 204°
2026-04-22 21:20 47.14124 18.85516 14720 ft 389 kts 204°
2026-04-22 21:20 47.11657 18.83845 15293 ft 393 kts 204°
2026-04-22 21:20 47.09169 18.82159 15877 ft 397 kts 204°
2026-04-22 21:21 47.06651 18.80451 16463 ft 401 kts 204°
2026-04-22 21:21 47.04107 18.78725 17048 ft 405 kts 204°
2026-04-22 21:21 47.01539 18.76982 17637 ft 409 kts 204°
2026-04-22 21:21 46.98978 18.75103 18205 ft 414 kts 211°
2026-04-22 21:22 46.96658 18.72679 18713 ft 418 kts 221°
2026-04-22 21:22 46.94619 18.69633 19213 ft 421 kts 232°
2026-04-22 21:22 46.92957 18.66090 19717 ft 424 kts 242°
2026-04-22 21:22 46.91486 18.62339 20225 ft 427 kts 242°
2026-04-22 21:23 46.89997 18.58548 20733 ft 431 kts 241°
2026-04-22 21:23 46.88495 18.54737 21261 ft 434 kts 241°
2026-04-22 21:23 46.86979 18.50902 21764 ft 438 kts 241°
2026-04-22 21:23 46.85447 18.47032 22234 ft 442 kts 241°
2026-04-22 21:24 46.83919 18.43178 22689 ft 446 kts 240°
2026-04-22 21:24 46.82358 18.39240 23143 ft 449 kts 240°
2026-04-22 21:24 46.80783 18.35274 23584 ft 453 kts 240°
2026-04-22 21:24 46.79194 18.31291 23976 ft 456 kts 240°
2026-04-22 21:25 46.77589 18.27275 24338 ft 460 kts 240°
2026-04-22 21:25 46.75971 18.23234 24697 ft 463 kts 240°
2026-04-22 21:25 46.74340 18.19164 25105 ft 465 kts 240°
2026-04-22 21:25 46.72707 18.15095 25494 ft 467 kts 240°
2026-04-22 21:26 46.71082 18.11041 25849 ft 470 kts 240°
2026-04-22 21:26 46.69431 18.06925 26196 ft 473 kts 240°
2026-04-22 21:26 46.67763 18.02773 26538 ft 477 kts 239°
2026-04-22 21:26 46.66077 17.98590 26867 ft 480 kts 239°
2026-04-22 21:27 46.64382 17.94397 27212 ft 483 kts 239°
2026-04-22 21:27 46.62672 17.90179 27544 ft 486 kts 239°
2026-04-22 21:27 46.60944 17.85920 27872 ft 489 kts 239°
2026-04-22 21:27 46.59218 17.81663 28136 ft 490 kts 239°
2026-04-22 21:28 46.55811 17.73262 28190 ft 484 kts 239°
2026-04-22 21:28 46.52388 17.64858 28184 ft 483 kts 239°
2026-04-22 21:29 46.48961 17.56471 28173 ft 483 kts 239°
2026-04-22 21:29 46.45518 17.48100 28195 ft 483 kts 239°
2026-04-22 21:30 46.42086 17.39769 28215 ft 481 kts 239°
2026-04-22 21:30 46.38684 17.31518 28217 ft 480 kts 239°
2026-04-22 21:31 46.35260 17.23235 28221 ft 479 kts 239°
2026-04-22 21:31 46.31824 17.14968 28217 ft 479 kts 239°
2026-04-22 21:32 46.28396 17.06726 28220 ft 477 kts 239°
2026-04-22 21:32 46.24994 16.98577 28222 ft 475 kts 239°
2026-04-22 21:33 46.21178 16.90801 28230 ft 474 kts 233°
2026-04-22 21:33 46.17212 16.83212 28229 ft 473 kts 233°
2026-04-22 21:34 46.13267 16.75634 28234 ft 472 kts 234°
2026-04-22 21:34 46.09344 16.68139 28237 ft 471 kts 233°
2026-04-22 21:35 46.05397 16.60627 28232 ft 470 kts 233°
2026-04-22 21:35 46.01458 16.53133 28232 ft 469 kts 233°
2026-04-22 21:36 45.97514 16.45666 28235 ft 469 kts 234°
2026-04-22 21:36 45.93593 16.38279 28229 ft 467 kts 234°
2026-04-22 21:37 45.89652 16.30880 28242 ft 466 kts 233°
2026-04-22 21:37 45.85513 16.23715 28249 ft 466 kts 230°
2026-04-22 21:38 45.81170 16.16810 28250 ft 466 kts 229°
2026-04-22 21:38 45.76862 16.09993 28263 ft 464 kts 230°
2026-04-22 21:39 45.72585 16.03081 28263 ft 463 kts 230°
2026-04-22 21:39 45.68343 15.96165 28239 ft 462 kts 230°
2026-04-22 21:40 45.64092 15.89266 28233 ft 462 kts 230°
2026-04-22 21:40 45.59860 15.82447 28230 ft 462 kts 230°
2026-04-22 21:41 45.55596 15.75596 28212 ft 461 kts 230°
2026-04-22 21:41 45.51330 15.68759 28227 ft 461 kts 230°
2026-04-22 21:42 45.47062 15.61956 28237 ft 460 kts 230°
2026-04-22 21:42 45.44936 15.58565 27915 ft 455 kts 231°
2026-04-22 21:42 45.42855 15.55244 27642 ft 444 kts 231°
2026-04-22 21:43 45.40816 15.51986 27163 ft 438 kts 231°
2026-04-22 21:43 45.38801 15.48761 26660 ft 434 kts 231°
2026-04-22 21:43 45.36835 15.45612 26166 ft 430 kts 231°
2026-04-22 21:43 45.34855 15.42448 25684 ft 426 kts 231°
2026-04-22 21:44 45.32892 15.39322 25208 ft 423 kts 230°
2026-04-22 21:44 45.30936 15.36223 24733 ft 420 kts 231°
2026-04-22 21:44 45.28994 15.33151 24288 ft 416 kts 231°
2026-04-22 21:44 45.27063 15.30098 23835 ft 413 kts 231°
2026-04-22 21:45 45.25153 15.27066 23335 ft 410 kts 231°
2026-04-22 21:45 45.23259 15.24056 22908 ft 406 kts 231°
2026-04-22 21:45 45.21390 15.21082 22467 ft 402 kts 231°
2026-04-22 21:45 45.19531 15.18209 22049 ft 400 kts 226°
2026-04-22 21:46 45.17371 15.15753 21605 ft 399 kts 214°
2026-04-22 21:46 45.14914 15.13932 21158 ft 397 kts 202°
2026-04-22 21:46 45.12276 15.12836 20715 ft 395 kts 191°
2026-04-22 21:46 45.09559 15.12390 20270 ft 392 kts 185°
2026-04-22 21:47 45.06851 15.12035 19819 ft 389 kts 185°
2026-04-22 21:47 45.04167 15.11669 19361 ft 387 kts 185°
2026-04-22 21:47 45.01493 15.11296 18898 ft 385 kts 185°
2026-04-22 21:47 44.98835 15.10921 18420 ft 383 kts 185°
2026-04-22 21:48 44.96227 15.10552 17929 ft 380 kts 185°
2026-04-22 21:48 44.93610 15.10185 17471 ft 377 kts 185°
2026-04-22 21:48 44.91009 15.09821 16996 ft 374 kts 185°
2026-04-22 21:48 44.88429 15.09461 16555 ft 371 kts 185°
2026-04-22 21:49 44.85862 15.09107 16095 ft 370 kts 185°
2026-04-22 21:49 44.83364 15.08766 15639 ft 368 kts 185°
2026-04-22 21:49 44.80823 15.08421 15185 ft 365 kts 185°
2026-04-22 21:49 44.78293 15.08078 14730 ft 364 kts 185°
2026-04-22 21:50 44.75809 15.07741 14257 ft 362 kts 185°
2026-04-22 21:50 44.73306 15.07389 13580 ft 365 kts 185°
2026-04-22 21:50 44.70730 15.06973 12526 ft 379 kts 186°
2026-04-22 21:50 44.68115 15.06507 11808 ft 374 kts 187°
2026-04-22 21:51 44.65566 15.06036 11192 ft 363 kts 187°
2026-04-22 21:51 44.63106 15.05580 10749 ft 353 kts 186°
2026-04-22 21:51 44.60703 15.05137 10539 ft 342 kts 187°
2026-04-22 21:52 44.56170 15.04325 10238 ft 314 kts 186°
2026-04-22 21:52 44.54062 15.03955 9817 ft 307 kts 186°
2026-04-22 21:52 44.51954 15.03587 9508 ft 304 kts 185°
2026-04-22 21:52 44.49862 15.03222 9129 ft 303 kts 185°
2026-04-22 21:53 44.47777 15.02858 8755 ft 301 kts 185°
2026-04-22 21:53 44.45699 15.02494 8363 ft 301 kts 184°
2026-04-22 21:53 44.43654 15.02135 7984 ft 301 kts 184°
2026-04-22 21:53 44.41583 15.01771 7610 ft 300 kts 184°
2026-04-22 21:54 44.39514 15.01408 7223 ft 299 kts 183°
2026-04-22 21:54 44.37461 15.01293 6849 ft 293 kts 168°
2026-04-22 21:54 44.35550 15.01962 6486 ft 283 kts 150°
2026-04-22 21:54 44.33890 15.03322 6118 ft 272 kts 134°
2026-04-22 21:55 44.32531 15.05114 5773 ft 267 kts 129°
2026-04-22 21:55 44.31211 15.06926 5434 ft 265 kts 129°
2026-04-22 21:55 44.29915 15.08693 5113 ft 256 kts 129°
2026-04-22 21:55 44.28661 15.10400 4770 ft 246 kts 129°
2026-04-22 21:56 44.27476 15.12002 4489 ft 227 kts 129°
2026-04-22 21:56 44.26390 15.13464 4192 ft 214 kts 129°
2026-04-22 21:56 44.25339 15.14890 3923 ft 209 kts 129°
2026-04-22 21:56 44.24315 15.16291 3662 ft 204 kts 129°
2026-04-22 21:57 44.23314 15.17664 3417 ft 199 kts 129°
2026-04-22 21:57 44.22363 15.18963 3170 ft 185 kts 130°
2026-04-22 21:57 44.21472 15.20172 2913 ft 171 kts 130°
2026-04-22 21:57 44.20645 15.21299 2699 ft 163 kts 130°
2026-04-22 21:58 44.19842 15.22396 2485 ft 160 kts 131°
2026-04-22 21:58 44.19048 15.23478 2262 ft 159 kts 133°
2026-04-22 21:58 44.18258 15.24555 2055 ft 158 kts 133°
2026-04-22 21:58 44.17510 15.25571 1867 ft 149 kts 133°
2026-04-22 21:59 44.16780 15.26566 1683 ft 145 kts 133°
2026-04-22 21:59 44.16059 15.27541 1485 ft 144 kts 134°
2026-04-22 21:59 44.15334 15.28511 1356 ft 145 kts 132°
2026-04-22 21:59 44.14605 15.29499 1168 ft 147 kts 132°
2026-04-22 22:00 44.13871 15.30503 945 ft 149 kts 130°
2026-04-22 22:00 44.13133 15.31547 782 ft 155 kts 131°
2026-04-22 22:00 44.12359 15.32604 536 ft 156 kts 134°
2026-04-22 22:00 44.11606 15.33627 309 ft 150 kts 135°
2026-04-22 22:01 44.10935 15.34528 278 ft 112 kts 136°
2026-04-22 22:01 44.10502 15.35113 279 ft 62 kts 136°
2026-04-22 22:01 44.10271 15.35427 279 ft 42 kts 135°
2026-04-22 22:01 44.10107 15.35647 281 ft 29 kts 135°
2026-04-22 22:02 44.10016 15.35694 283 ft 10 kts 225°
2026-04-22 22:02 44.09960 15.35617 279 ft 12 kts 224°
2026-04-22 22:02 44.09890 15.35535 280 ft 15 kts 203°
2026-04-22 22:02 44.09788 15.35536 275 ft 10 kts 178°
2026-04-22 22:03 44.09711 15.35539 275 ft 12 kts 178°
2026-04-22 22:03 44.09625 15.35542 275 ft 13 kts 178°
2026-04-22 22:03 44.09566 15.35506 277 ft 8 kts 259°
2026-04-22 22:03 44.09593 15.35450 275 ft 8 kts 324°
2026-04-22 22:04 44.09606 15.35437 275 ft 0 kts 325°